Regional Weather Roundup
Issued by NWS Upton, NY

Current Version | Previous Version | Graphics & Text | Print | Product List | Glossary Off
Versions: 1 2 3 4 5 6 7 8 9 10 11 12 13 14 15 16 17 18 19 20 21 22 23 24 25 26 27 28 29 30 31 32 33 34 35 36 37 38 39 40 41 42 43 44 45 46 47 48 49 50

000
ASUS41 KOKX 162308
RWROKX

REGIONAL WEATHER ROUNDUP
NATIONAL WEATHER SERVICE NEW YORK NY
700 PM EDT WED AUG 16 2017

NOTE: "FAIR" INDICATES FEW OR NO CLOUDS BELOW 12,000 FEET WITH NO
SIGNIFICANT WEATHER AND/OR OBSTRUCTIONS TO VISIBILITY.

NYZ071-072-176-178-NJZ106-104-170000-
NEW YORK CITY METRO AREA

CITY           SKY/WX    TMP DP  RH WIND       PRES   REMARKS
Central Park   CLEAR     82  61  48 CALM      29.99R
Bronx Bot Gard   N/A     82  61  47 CALM      29.97F
LaGuardia APRT PTCLDY    84  62  47 NW5       29.95R
Kennedy INTL   PTCLDY    85  63  47 NE6       29.96R
Breezy Point     N/A     81 N/A N/A NW5         N/A
Newark/Liberty PTCLDY    85  59  41 W9        29.95S
Teterboro      PTCLDY    85  60  42 N6        29.94S
$$

NYZ177-179-078>081-170000-
LONG ISLAND NEW YORK

CITY           SKY/WX    TMP DP  RH WIND       PRES   REMARKS
Jones Beach      N/A     81 N/A N/A CALM        N/A
Matinecock PT    N/A     81 N/A N/A E2          N/A
Farmingdale    PTCLDY    83  60  45 N6        29.97R
MacArthur/ISP  PTCLDY    83  61  47 NW6       29.96R
Shirley        CLEAR     83  62  49 NW6       29.96R
Mt Sinai Harb    N/A     79 N/A N/A MISG        N/A
Westhampton    CLEAR     82  57  42 NW8       29.97R
East Hampton   FAIR      78  66  66 SW3       29.95R
Montauk          N/A     78  69  73 SW5       29.96R
$$

NYZ052-065-067-170000-
HUDSON VALLEY

CITY           SKY/WX    TMP DP  RH WIND       PRES   REMARKS
White Plains   PTCLDY    81  61  50 N3        29.97R
Larchmont Harb   N/A     79 N/A N/A E5          N/A
Croton On Huds   N/A     81 N/A N/A MISG        N/A
Newburgh       PTCLDY    81  64  57 VRB5      29.99S
Montgomery     MOCLDY    76  68  76 CALM      29.97R
Poughkeepsie   CLEAR     80  60  50 N3        29.96R
Albany         CLOUDY    77  52  41 W13       29.97R
$$

NJZ001-105-106-008-010-013-015-019>022-104-170000-
NEW JERSEY

CITY           SKY/WX    TMP DP  RH WIND       PRES   REMARKS
Newark/Liberty PTCLDY    85  59  41 W9        29.95S
Teterboro      PTCLDY    85  60  42 N6        29.94S
Caldwell       CLEAR     82  62  50 NW6       29.97R
Somerville     CLEAR     80  68  66 CALM      29.96R
Linden         FAIR      84  57  39 N6        29.96R
Perth Amboy      N/A     82 N/A N/A NW7         N/A
Sussex         CLEAR     80  64  58 W3        29.99R
Andover          N/A     77  65  66 CALM      30.00R
Trenton        PTCLDY    83  64  52 N3        29.97R
Millville      CLEAR     86  71  60 NW6       29.97R HX  91
Atlantic City  PTCLDY    80  71  74 S7        29.97S
Wrightstown    NOT AVBL
Toms River     MOCLDY    78  71  79 S6        29.99R
Belmar         CLEAR     80  69  69 VRB5      29.99R
$$

PAZ047>061-062-071-170000-
EASTERN PENNSYLVANIA

CITY           SKY/WX    TMP DP  RH WIND       PRES   REMARKS
Philadelphia   PTCLDY    85  61  44 N8        29.97R
Allentown      CLOUDY    81  64  56 CALM      29.99R
Scranton       SUNNY     79  57  46 NW6       30.03S
$$

CTZ002-004>006-009-010-012-RIZ004-006-007-MAZ004-011-015-170000-
SOUTHERN NEW ENGLAND
 IN CT

CITY           SKY/WX    TMP DP  RH WIND       PRES   REMARKS
Bradley INTL   PTCLDY    80  60  50 NW6       29.95R
Hartford       CLEAR     82  58  43 NW6       29.94R
Danbury        PTCLDY    80  62  54 VRB3      29.99R
Wtrbury/Oxford CLEAR     77  60  55 NW3       30.00R
Norwalk Harbor   N/A     82 N/A N/A NW5         N/A
Bridgeport     CLEAR     83  59  44 NW7       29.95R
Meriden        CLEAR     80  59  48 NW6       29.95R
New Haven      CLEAR     82  58  43 NW7       29.96R
Chester        NOT AVBL
Groton         CLEAR     79  65  62 SW5       29.93R
Wilimantic     CLEAR     80  60  50 NW5       29.95R

 IN RI

CITY           SKY/WX    TMP DP  RH WIND       PRES   REMARKS
Providence     CLEAR     81  60  48 N8        29.94R
Block Island   CLEAR     75  68  78 SW13      29.95S
Westerly       CLEAR     79  65  62 S7        29.95R
 IN MA

CITY           SKY/WX    TMP DP  RH WIND       PRES   REMARKS
Boston         PTCLDY    81  51  35 NW15      29.93R
Worcester      CLEAR     75  56  51 NW5       29.98R
Westfield      CLEAR     79  61  53 NW5       29.95R
Provincetown   CLEAR     73  61  65 N7        29.93R
Nantucket      CLEAR     69  65  86 SW6       29.94R
$$

ANZ330-335-338-340-345-350-353-355-170000-
COASTAL MARINE OBSERVATIONS


STATION/POSITION TIME  SKY/WX   TEMP    WIND        PRES    VSBY  WAVE
                                AIR SEA DIR/SP/G                  HT/PER
                 (UTC)          (F)     (DEG/KT/KT) (MB)    (MI)  (FT/S)
NY HARB ENTRANCE 2150            80 79  200/  6/  8 1013.6          4/10
GREAT SOUTH BAY  2230            78 79  230/  6/  8   N/A
23 SSW MONTAUK P 2150            75 73              1014.2          5/13
15 E BARNEGAT LI 2230               76                N/A           3/ 9
HUDSON CANYON    2150            75 75  300/  4/  6 1014.3          4/10
KINGS POINT      2230            84 74   80/  2/  3 1014.3
EXECUTION ROCKS  NOT AVBL
WESTERN LI SOUND NOT AVBL
CENTRAL LI SOUND NOT AVBL
EASTERN LI SOUND NOT AVBL
ROBBINS REEF     2230                   330/  9/ 10 1014.8
$$


>>>>>>>>>>>>>>>>>>>>>>>>>>>> KEY <<<<<<<<<<<<<<<<<<<<<<<<<<<
>                                                          <
>     SKY/WX - Sky Condition/Present Weather               <
>     TMP    - Temperature in Fahrenheit                   <
>     DP     - Dew Point in Fahrenheit                     <
>     RH     - Relative Humidity in Percent                <
>     WIND   - Direction (from) and Speed in MPH           <
>     PRES   - Mean Sea Level Pressure (inches of Hg)      <
>     WCI    - Wind Chill Index                            <
>     VSB    - VISIBILITY IN MILES                         <
>     HX     - HEAT INDEX                                  <
>     TC     - TEMPERATURE IN CELSIUS                      <
>     VRB    - VARIABLE WIND DIRECTION                     <
>                                                          <
>>>>>>>>>>>>>>>>>>>>>>>>>>>> KEY <<<<<<<<<<<<<<<<<<<<<<<<<<<



USA.gov is the U.S. government's official web portal to all federal, state and local government web resources and services.